GW1942 Weather Reports


time (UTC)temp
F
wind
direction
speed
knots
gust
knots
rain 1hr
in
rain 24hr
in
rain mn
in
humidity
%
barometer
mb
20260508190027 72 96 0.9 3.5 0.00 0.00 0.00 37 1010.9
20260508184520 72 15 0.9 2.6 0.00 0.00 0.00 38 1011.1
20260508183017 70 40 1.7 4.3 0.00 0.00 0.00 40 1011.2
20260508181517 70 101 0.0 2.6 0.00 0.00 0.00 41 1011.4
20260508180017 68 56 0.9 1.7 0.00 0.00 0.00 45 1011.5
20260508174511 67 124 0.9 2.6 0.00 0.00 0.00 51 1011.9
20260508173008 66 275 0.0 2.6 0.00 0.00 0.00 52 1012.1
20260508171501 64 257 0.0 2.6 0.00 0.00 0.00 54 1012.3
20260508170100 64 280 0.0 2.6 0.00 0.00 0.00 58 1012.3
20260508164555 62 280 0.0 1.7 0.00 0.00 0.00 61 1012.6
20260508163051 60 41 0.0 3.5 0.00 0.00 0.00 63 1012.8
20260508161549 58 70 0.0 2.6 0.00 0.00 0.00 65 1012.9
20260508160105 58 86 0.0 0.9 0.00 0.00 0.00 66 1013.1
20260508154543 55 77 0.0 1.7 0.00 0.00 0.00 72 1013.2
20260508153045 54 68 0.0 0.9 0.00 0.00 0.00 73 1013.3
20260508151538 52 58 0.0 1.7 0.00 0.00 0.00 75 1013.5
20260508150037 50 82 0.0 0.9 0.00 0.00 0.00 80 1013.6
20260508144535 49 123 0.0 0.9 0.00 0.00 0.00 82 1013.7
20260508143042 47 253 0.0 0.9 0.00 0.00 0.00 86 1013.6
20260508141547 46 210 0.0 0.0 0.00 0.00 0.00 88 1013.7
20260508140033 44 286 0.0 0.9 0.00 0.00 0.00 90 1013.6
20260508134534 42 157 0.0 0.0 0.00 0.00 0.00 92 1013.6
20260508133030 41 211 0.0 0.9 0.00 0.00 0.00 92 1013.5
20260508131529 40 272 0.0 0.9 0.00 0.00 0.00 94 1013.5
20260508130028 39 203 0.0 0.9 0.00 0.00 0.00 93 1013.3
20260508124526 39 238 0.0 0.0 0.00 0.00 0.00 93 1013.1
20260508123025 39 238 0.0 0.9 0.00 0.00 0.00 92 1013.1
20260508121548 39 75 0.0 0.9 0.00 0.00 0.00 94 1012.9
20260508120022 39 139 0.0 0.9 0.00 0.00 0.00 92 1012.9
20260508114519 40 108 0.0 0.0 0.00 0.00 0.00 94 1013.0
20260508113018 40 121 0.0 0.9 0.00 0.00 0.00 94 1013.1
20260508111516 42 103 0.0 0.9 0.00 0.00 0.00 89 1012.8
20260508110015 40 95 0.0 0.9 0.00 0.00 0.00 91 1012.7
20260508104613 41 206 0.0 1.7 0.00 0.00 0.00 93 1012.6
20260508103015 40 113 0.0 0.9 0.00 0.00 0.00 91 1012.6
20260508101510 42 158 0.0 0.0 0.00 0.00 0.00 90 1012.6
20260508100007 41 158 0.0 0.0 0.00 0.00 0.00 92 1012.4
20260508094505 41 252 0.0 0.9 0.00 0.00 0.00 92 1012.3
20260508093001 42 190 0.0 0.9 0.00 0.00 0.00 86 1012.3
20260508091500 42 193 0.0 0.0 0.00 0.00 0.00 90 1012.2
20260508090059 43 194 0.0 0.0 0.00 0.00 0.00 89 1012.2
20260508084557 43 245 0.0 0.9 0.00 0.00 0.00 88 1012.0
20260508083137 43 162 0.0 1.7 0.00 0.00 0.00 87 1012.0
20260508081556 43 151 0.0 0.9 0.00 0.00 0.00 87 1011.8
20260508080059 45 204 0.0 1.7 0.00 0.00 0.00 84 1011.8
20260508074547 47 299 0.9 2.6 0.00 0.00 0.00 83 1011.9
20260508073050 46 161 0.0 0.9 0.00 0.00 0.00 81 1011.9
20260508071544 49 129 0.9 3.5 0.00 0.00 0.00 81 1011.8
20260508070044 47 97 0.0 0.0 0.00 0.00 0.00 84 1011.7
20260508064601 47 126 0.0 0.9 0.00 0.01 0.00 82 1011.5
20260508063038 48 139 0.0 0.9 0.00 0.01 0.00 80 1011.5
20260508061532 50 158 0.0 1.7 0.00 0.01 0.00 77 1011.4
20260508060028 51 155 0.0 2.6 0.00 0.01 0.00 75 1011.3
20260508054527 52 103 0.0 1.7 0.00 0.03 0.01 73 1011.2
20260508053027 53 70 0.9 2.6 0.00 0.03 0.01 71 1011.3
20260508051527 55 151 1.7 5.2 0.00 0.03 0.01 65 1011.2
20260508050025 56 86 0.9 7.8 0.00 0.03 0.01 63 1011.1
20260508044524 56 111 3.5 7.0 0.00 0.03 0.01 63 1011.0
20260508043024 56 96 4.3 7.8 0.00 0.03 0.01 63 1010.7
20260508041522 57 105 4.3 8.7 0.00 0.03 0.01 61 1010.7
20260508040022 57 106 3.5 7.0 0.00 0.03 0.01 62 1010.6
20260508034521 59 97 3.5 8.7 0.00 0.03 0.01 60 1010.5
20260508033021 59 98 4.3 7.0 0.00 0.03 0.01 59 1010.3
20260508031520 61 117 1.7 5.2 0.00 0.03 0.01 58 1010.1
20260508030020 61 101 1.7 5.2 0.00 0.03 0.01 58 1009.9
20260508024525 63 193 0.0 0.0 0.00 0.03 0.01 55 1009.7
20260508023030 66 188 0.0 0.0 0.00 0.03 0.01 48 1009.6
20260508021518 70 201 0.0 2.6 0.00 0.03 0.01 40 1009.7
20260508020018 72 199 0.0 0.9 0.00 0.03 0.01 37 1009.7
20260508014519 72 300 0.0 2.6 0.00 0.03 0.01 37 1009.7
20260508013015 72 259 0.0 5.2 0.00 0.03 0.01 37 1009.6
20260508011515 74 214 0.9 8.7 0.00 0.03 0.01 34 1009.7
20260508010014 75 287 0.9 4.3 0.00 0.03 0.01 33 1009.6
20260508004513 75 223 0.0 5.2 0.00 0.03 0.01 31 1009.6
20260508003012 74 305 0.9 6.1 0.00 0.03 0.01 30 1009.7
20260508001511 75 243 2.6 7.8 0.00 0.03 0.01 28 1009.6
20260508000011 76 285 1.7 4.3 0.00 0.03 0.01 29 1009.6
20260507234513 76 205 2.6 7.8 0.00 0.03 0.01 27 1009.4
20260507233009 76 278 1.7 6.1 0.00 0.03 0.01 27 1009.4
20260507231508 76 307 2.6 6.1 0.00 0.03 0.01 27 1009.5
20260507230007 76 270 3.5 7.8 0.00 0.03 0.01 28 1009.6
20260507224513 76 300 4.3 9.6 0.00 0.03 0.01 30 1009.7
20260507223005 76 194 0.9 6.1 0.00 0.03 0.01 29 1009.8
20260507221501 75 257 0.9 4.3 0.00 0.03 0.01 35 1009.9
20260507220001 75 293 0.0 2.6 0.00 0.03 0.01 35 1010.0
20260507214610 74 63 2.6 4.3 0.00 0.03 0.01 34 1010.2
20260507213107 72 309 0.0 3.5 0.00 0.03 0.01 39 1010.4
20260507211555 73 358 0.0 2.6 0.00 0.03 0.01 40 1010.4
20260507210055 72 210 1.7 7.0 0.00 0.03 0.01 40 1010.5
20260507204601 73 109 0.9 2.6 0.00 0.03 0.01 44 1010.6
20260507203052 73 211 0.9 4.3 0.00 0.03 0.01 39 1010.8
20260507201549 72 69 0.0 2.6 0.00 0.03 0.01 42 1010.7
20260507200049 72 37 3.5 7.8 0.00 0.03 0.01 41 1010.8
20260507194547 71 238 0.9 4.3 0.00 0.03 0.01 40 1010.9
20260507193045 71 51 0.0 3.5 0.00 0.03 0.01 40 1010.9
20260507191541 70 182 0.9 3.5 0.00 0.03 0.01 46 1011.1